This demonstration page uses our WeatherBlox Daily Observations layout. Learn more.

Left ArrowRight Arrow

Hourly Observations for December 10, 2015

Temp ( °F °C ) Dew Point ( °F °C ) Humidity (%) Winds ( mph kmh ) Pressure ( in mb ) Visibility ( mi km ) Precip ( " mm )
12:51 am 00:51 Clear 41 5 24 -4.4 51 51 E 6 9 30.01 1016 10 16 N/A
1:51 am 01:51 Clear 40 4.4 24 -4.4 53 53 N N/A 30.00 1016 10 16 N/A
2:51 am 02:51 Clear 41 5 25 -3.9 53 53 N N/A 30.00 1016 10 16 N/A
3:51 am 03:51 Clear 38 3.3 25 -3.9 60 60 ESE 6 9 29.99 1016 10 16 N/A
4:51 am 04:51 Clear 37 2.8 24 -4.4 59 59 N N/A 30.00 1016 10 16 N/A
5:51 am 05:51 Clear 36 2.2 24 -4.4 62 62 E 5 7 30.01 1016 10 16 N/A
6:51 am 06:51 Clear 33 0.6 23 -5 66 66 SSE 6 9 30.05 1018 10 16 N/A
7:51 am 07:51 Sunny 39 3.9 25 -3.9 57 57 N N/A 30.06 1018 10 16 N/A
8:46 am 08:46 Hazy 43 6 27 -3 53 53 N N/A 30.15 1021 3 4 N/A
8:51 am 08:51 Sunny 45 7.2 27 -2.8 49 49 N N/A 30.08 1019 10 16 N/A
9:12 am 09:12 Hazy 47 8.3 27 -2.8 46 46 N N/A 30.12 1020 2 3 N/A
9:21 am 09:21 Hazy 48 8.9 27 -2.8 44 44 VRB 3 6 30.12 1020 5 8 N/A
9:51 am 09:51 Sunny 51 10.6 28 -2.2 41 41 VRB 3 6 30.06 1018 10 16 N/A
10:51 am 10:51 Sunny 58 14.4 29 -1.7 33 33 SSE 5 7 30.04 1017 10 16 N/A
11:51 am 11:51 Sunny 61 16.1 28 -2.2 29 29 N N/A 30.00 1016 10 16 N/A
12:51 pm 12:51 Sunny 65 18.3 28 -2.2 25 25 N N/A 29.94 1014 10 16 N/A
1:51 pm 13:51 Sunny 68 20 28 -2.2 22 22 N N/A 29.91 1013 10 16 N/A
2:51 pm 14:51 Sunny 70 21.1 29 -1.7 22 22 W 8 13 29.89 1012 10 16 N/A
3:51 pm 15:51 Sunny 70 21.1 30 -1.1 23 23 NW 6 9 29.89 1012 10 16 N/A
4:51 pm 16:51 Sunny 66 18.9 30 -1.1 26 26 NNW 3 6 29.88 1012 10 16 N/A
5:51 pm 17:51 Clear 59 15 29 -1.7 32 32 N N/A 29.90 1013 10 16 N/A
6:51 pm 18:51 Clear 52 11.1 26 -3.3 37 37 ENE 3 6 29.93 1013 10 16 N/A
7:51 pm 19:51 Clear 50 10 27 -2.8 41 41 E 8 13 29.91 1013 10 16 N/A
8:51 pm 20:51 Clear 48 8.9 28 -2.2 46 46 E 7 11 29.90 1013 10 16 N/A
9:51 pm 21:51 Clear 47 8.3 28 -2.2 48 48 E 7 11 29.88 1012 10 16 N/A
10:51 pm 22:51 Clear 46 7.8 28 -2.2 50 50 SE 7 11 29.87 1011 10 16 N/A
11:51 pm 23:51 Clear 43 6.1 27 -2.8 53 53 ESE 5 7 29.85 1011 10 16 N/A

Powered by AerisWeather